[[{"header":{"parameterUnit":"m.s-1","parameterCategory":1,"la1":30.2991,"la2":30.254,"lo1":-89.0895,"lo2":-89.0444,"dy":0.0017,"dx":0.0017,"nx":28,"ny":28,"refTime":"2025-11-26T09:00:00:Z","depth":0,"parameterNumber":2,"parameterNumberName":"U-component_of_WINDS"},"data":[0,0,0,0,0,0,0,0,0,0,0,0,0,0,0,0,0,0,0,0,0,0,0,0,0,0,0,0,0,0,0,0,0,0,0,0,0,0,0,0,0,0,0,0,0,0,0,0,0,0,0,0,0,0,0,0,0,0,0.0724,0.0724,0,0.07,0.07,0.07,0.0717,0.0718,0.0719,0.072,0.0692,0.069,0.0689,0,0,0,0,0,0,0,0,0,0,0,0,0,0.0782,0.0781,0.0724,0.0724,0.0724,0.07,0.07,0.07,0.0717,0.0718,0.0719,0.072,0.0692,0.069,0.0688,0,0,0,0,0,0,0,0,0,0,0,0,0,0.0758,0.0781,0.0724,0.073,0.073,0.07,0.07,0.07,0.0717,0.0718,0.072,0.0721,0.0693,0.069,0.0688,0.0651,0,0,0.0681,0.068,0,0,0,0,0,0,0,0,0.0759,0.0755,0.0729,0.0729,0.073,0.0713,0.071,0.0683,0.0717,0.0722,0.072,0.0721,0.0698,0.0695,0.0688,0.065,0.0648,0.0681,0.068,0.0679,0.0678,0,0,0,0,0,0,0,0.0761,0.0757,0.0715,0.0729,0.0729,0.0732,0.073,0.0705,0.0703,0.0722,0.0723,0.072,0.0698,0.069,0.0687,0.0648,0.0681,0.0679,0.0678,0.0677,0.0578,0.0577,0,0,0,0,0,0,0.0762,0.0758,0.0715,0.0714,0.0748,0.0731,0.0728,0.0717,0.0704,0.0703,0.0719,0.0721,0.0693,0.069,0.0686,0.0641,0.0679,0.0677,0.0676,0.0579,0.0578,0.0576,0,0,0,0,0,0,0.0764,0.0758,0.0716,0.0736,0.0731,0.0728,0.0716,0.0716,0.0708,0.0702,0.0701,0.0711,0.0694,0.0689,0.066,0.0641,0.0676,0.0674,0.0581,0.0579,0.0577,0.0551,0,0,0,0,0,0,0.0765,0.0759,0.0745,0.0736,0.073,0.0691,0.0715,0.0715,0.0705,0.0707,0.0694,0.0693,0.0694,0.0663,0.0658,0.0638,0.0672,0.0583,0.058,0.0578,0.0554,0.0549,0.0545,0,0,0,0,0,0.0767,0.0738,0.0744,0.0739,0.0713,0.069,0.0686,0.0689,0.0703,0.0689,0.0685,0.0694,0.0644,0.066,0.0654,0.0634,0.0584,0.0581,0.0578,0.0556,0.055,0.0545,0,0,0,0,0,0,0.0743,0.0737,0.0744,0.0711,0.0701,0.0693,0.0675,0.0683,0.0668,0.067,0.0674,0.0671,0.0639,0.0634,0.0652,0.0597,0.0616,0.0612,0.0601,0.0595,0.0591,0.0592,0.067,0,0,0,0,0,0.0734,0.0717,0.0712,0.0683,0.0678,0.0677,0.0667,0.0671,0.066,0.0656,0.065,0.0638,0.062,0.0608,0.0591,0.0554,0.0551,0.0537,0.0533,0.0529,0.0524,0.0504,0.0498,0.0567,0.0567,0.0567,0,0,0.0715,0.0709,0.0698,0.0678,0.0671,0.0652,0.0674,0.0653,0.0638,0.0652,0.0624,0.0619,0.0607,0.0574,0.0558,0.0568,0.0505,0.0525,0.0522,0.052,0.0501,0.0494,0.0488,0.0565,0.0565,0.0566,0,0,0.067,0.0664,0.064,0.0633,0.0622,0.0622,0.0617,0.0608,0.0606,0.0578,0.0588,0.0571,0.054,0.0531,0.0522,0.0475,0.0483,0.047,0.0444,0.0425,0.0419,0.0415,0.0397,0.0391,0.0466,0.0466,0.0466,0,0.0646,0.062,0.0626,0.0605,0.0595,0.0609,0.0584,0.0577,0.056,0.0553,0.0565,0.0526,0.0519,0.0484,0.0473,0.0465,0.0458,0.047,0.042,0.0415,0.0411,0.0394,0.0388,0.0464,0.0464,0.0465,0.0465,0,0.0591,0.0573,0.0554,0.054,0.0529,0.0505,0.0508,0.0496,0.0501,0.0499,0.0471,0.0463,0.0445,0.0437,0.0441,0.0402,0.0408,0.042,0.0439,0.0402,0.0387,0.0381,0.0462,0.0463,0.0463,0.0463,0,0,0.0528,0.0519,0.0512,0.0506,0.0496,0.0481,0.0459,0.0443,0.0432,0.0421,0.0402,0.0376,0.0387,0.0377,0.038,0.0363,0.0327,0.0377,0.0377,0.0367,0.0283,0.0273,0.0266,0.0332,0.0331,0.033,0.0283,0,0.0482,0.0443,0.0449,0.0412,0.0394,0.0408,0.0389,0.038,0.0379,0.0363,0.0362,0.0343,0.036,0.0354,0.0338,0.0334,0.0309,0.0338,0.0313,0.0312,0.0314,0.0258,0.0247,0.0203,0.0278,0.0277,0.0276,0,0.0422,0.041,0.0372,0.0366,0.0359,0.0341,0.0327,0.0312,0.0303,0.0303,0.0293,0.03,0.0277,0.0298,0.0266,0.0285,0.0276,0.0273,0.0271,0.0267,0.029,0.0251,0.0189,0.0182,0.0266,0.0267,0.0268,0,0.0378,0.0353,0.0327,0.0321,0.0314,0.0301,0.0297,0.029,0.028,0.0267,0.0261,0.0245,0.0236,0.0224,0.0226,0.0242,0.0193,0.0215,0.0192,0.0191,0.0179,0.0179,0.0113,0.0176,0.0176,0.0176,0.0176,0,0.0325,0.03,0.0307,0.0291,0.0264,0.0271,0.0244,0.0242,0.0235,0.0218,0.0229,0.0213,0.0218,0.0201,0.0203,0.0176,0.0172,0.017,0.0171,0.0168,0.0168,0.0161,0.0163,0.0174,0.0174,0.0175,0.0175,0,0.027,0.0274,0.0246,0.0242,0.0241,0.0221,0.0217,0.0201,0.0202,0.018,0.0176,0.0176,0.0158,0.016,0.0138,0.014,0.0105,0.011,0.0108,0.0109,0.0085,0.0087,0.001,0.0,0.0071,0.007,0.007,0,0.0235,0.0216,0.0211,0.0201,0.0197,0.0181,0.0171,0.0178,0.0168,0.0157,0.0142,0.0125,0.0112,0.0081,0.0079,0.0063,0.0066,0.0041,0.0064,0.0062,0.0065,0.0065,0.0063,0.0036,0.0035,0.0034,0.0034,0,0.0171,0.0175,0.0161,0.0148,0.0137,0.0127,0.0118,0.0109,0.0115,0.0103,0.0085,0.0075,0.0054,0.0036,0.0022,0.0017,0.0026,0.0027,0.0021,0.0017,0.0016,0.0015,0.0094,0.0028,0.0029,0.0029,0.0029,0.003,0.0124,0.0109,0.0103,0.0088,0.0082,0.0074,0.0059,0.0059,0.0045,0.0029,0.0034,0.0014,0.0006,-0.0013,-0.0019,-0.0035,-0.0026,-0.0035,-0.0038,-0.0041,-0.0044,0.0021,-0.0038,-0.0038,-0.0038,-0.0038,-0.0037,0,0.006,0.0058,0.0044,0.0032,0.002,0.0032,0.0023,0.0012,-0.0006,-0.0013,-0.0026,-0.0047,-0.0063,-0.0066,-0.0081,-0.0094,-0.0091,-0.0099,-0.0099,-0.01,-0.0051,-0.0044,-0.0102,-0.0102,-0.0101,-0.0101,-0.0101,-0.0101,0.0025,-0.0,0.0003,-0.0025,-0.0028,-0.0047,-0.0053,-0.0061,-0.0066,-0.0089,-0.0102,-0.0103,-0.0109,-0.0124,-0.0139,-0.0139,-0.0147,-0.0157,-0.0156,-0.011,-0.0104,-0.0098,-0.0092,-0.0158,-0.0158,-0.0204,-0.0204,-0.0205]},{"header":{"parameterUnit":"m.s-1","parameterCategory":1,"la1":30.2991,"la2":30.254,"lo1":-89.0895,"lo2":-89.0444,"dy":0.0017,"dx":0.0017,"nx":28,"ny":28,"refTime":"2025-11-26T09:00:00:Z","depth":0,"parameterNumber":3,"parameterNumberName":"V-component_of_WINDS"},"data":[0,0,0,0,0,0,0,0,0,0,0,0,0,0,0,0,0,0,0,0,0,0,0,0,0,0,0,0,0,0,0,0,0,0,0,0,0,0,0,0,0,0,0,0,0,0,0,0,0,0,0,0,0,0,0,0,0,0,-7.1236,-7.1237,0,-7.1317,-7.1318,-7.1319,-7.1207,-7.1204,-7.12,-7.1196,-7.1274,-7.1279,-7.1285,0,0,0,0,0,0,0,0,0,0,0,0,0,-7.098,-7.0985,-7.1236,-7.1237,-7.1238,-7.1317,-7.1318,-7.1319,-7.1208,-7.1203,-7.1199,-7.1194,-7.1272,-7.1279,-7.1286,0,0,0,0,0,0,0,0,0,0,0,0,0,-7.1079,-7.0987,-7.1236,-7.1192,-7.1189,-7.1317,-7.1318,-7.1319,-7.1209,-7.1203,-7.1197,-7.1192,-7.127,-7.1278,-7.1286,-7.1459,0,0,-7.1313,-7.1317,0,0,0,0,0,0,0,0,-7.1073,-7.1088,-7.1198,-7.1195,-7.1192,-7.1246,-7.1256,-7.1366,-7.1211,-7.1201,-7.1196,-7.1189,-7.1269,-7.1277,-7.1305,-7.1462,-7.1466,-7.1314,-7.1319,-7.1323,-7.1325,0,0,0,0,0,0,0,-7.1067,-7.1084,-7.1268,-7.1199,-7.1196,-7.1167,-7.1174,-7.1276,-7.1267,-7.1202,-7.1194,-7.1205,-7.1266,-7.1297,-7.1306,-7.1467,-7.1313,-7.1321,-7.1326,-7.133,-7.1768,-7.1775,0,0,0,0,0,0,-7.1066,-7.1079,-7.1265,-7.127,-7.1117,-7.1176,-7.1185,-7.1235,-7.1266,-7.1265,-7.121,-7.12,-7.1285,-7.1296,-7.1309,-7.1512,-7.1323,-7.1331,-7.1336,-7.1762,-7.177,-7.1777,0,0,0,0,0,0,-7.1061,-7.1083,-7.1262,-7.1173,-7.1193,-7.1187,-7.1244,-7.1239,-7.127,-7.1273,-7.127,-7.1244,-7.1281,-7.1296,-7.1422,-7.1513,-7.1335,-7.1342,-7.1754,-7.1764,-7.1773,-7.1921,0,0,0,0,0,0,-7.1054,-7.1082,-7.1149,-7.1175,-7.1198,-7.1376,-7.125,-7.1245,-7.1286,-7.1273,-7.1303,-7.1303,-7.1278,-7.141,-7.1431,-7.1522,-7.1349,-7.1746,-7.1759,-7.177,-7.1908,-7.1935,-7.1958,0,0,0,0,0,-7.1045,-7.1186,-7.1153,-7.1176,-7.1282,-7.1382,-7.1395,-7.1365,-7.1294,-7.136,-7.1361,-7.1302,-7.15,-7.1424,-7.1447,-7.1542,-7.174,-7.1755,-7.1769,-7.1897,-7.193,-7.1957,0,0,0,0,0,0,-7.1168,-7.1189,-7.1152,-7.1306,-7.1343,-7.1363,-7.1445,-7.14,-7.1457,-7.1442,-7.1401,-7.1409,-7.1544,-7.1555,-7.147,-7.171,-7.1608,-7.1628,-7.1698,-7.1728,-7.1753,-7.1747,-7.1356,0,0,0,0,0,-7.1214,-7.1296,-7.1308,-7.1442,-7.1463,-7.1452,-7.1494,-7.1468,-7.1504,-7.1518,-7.1529,-7.1565,-7.1635,-7.1682,-7.1747,-7.1909,-7.1914,-7.1986,-7.201,-7.203,-7.2048,-7.2134,-7.2166,-7.1825,-7.1825,-7.1824,0,0,-7.1308,-7.1329,-7.1383,-7.1468,-7.1494,-7.1577,-7.1465,-7.1558,-7.162,-7.1532,-7.1652,-7.1661,-7.1698,-7.1844,-7.1908,-7.1857,-7.2143,-7.2049,-7.2065,-7.2072,-7.2153,-7.2185,-7.2214,-7.1835,-7.1833,-7.1831,0,0,-7.1523,-7.1547,-7.1662,-7.1691,-7.1732,-7.1724,-7.1752,-7.1778,-7.1782,-7.1902,-7.1838,-7.1909,-7.2031,-7.2061,-7.2091,-7.2318,-7.2265,-7.234,-7.2469,-7.2554,-7.2581,-7.2604,-7.2685,-7.2714,-7.2357,-7.2358,-7.2358,0,-7.1634,-7.176,-7.1727,-7.1825,-7.1864,-7.1791,-7.1906,-7.1934,-7.1994,-7.2022,-7.1965,-7.2117,-7.2137,-7.2287,-7.2343,-7.237,-7.24,-7.2336,-7.258,-7.2603,-7.2625,-7.2701,-7.2731,-7.2367,-7.2366,-7.2365,-7.2364,0,-7.1895,-7.1982,-7.207,-7.2132,-7.2181,-7.2287,-7.2269,-7.2322,-7.2291,-7.2288,-7.2411,-7.2433,-7.2501,-7.2534,-7.2505,-7.2681,-7.2649,-7.2587,-7.2484,-7.2667,-7.2738,-7.2767,-7.2379,-7.2376,-7.2374,-7.2371,0,0,-7.2189,-7.2232,-7.2265,-7.2292,-7.2333,-7.2399,-7.2501,-7.257,-7.2616,-7.2659,-7.2743,-7.2849,-7.2792,-7.2827,-7.28,-7.2874,-7.3052,-7.2803,-7.2803,-7.2848,-7.3248,-7.3295,-7.3329,-7.3018,-7.3023,-7.3027,-7.3245,0,-7.2404,-7.2583,-7.2557,-7.2729,-7.281,-7.2741,-7.283,-7.2864,-7.2864,-7.293,-7.2929,-7.3005,-7.2923,-7.2944,-7.3015,-7.3016,-7.3132,-7.3,-7.3094,-7.3098,-7.3088,-7.3366,-7.3416,-7.362,-7.3272,-7.3277,-7.328,0,-7.2678,-7.2734,-7.2916,-7.2944,-7.2976,-7.3057,-7.3118,-7.3183,-7.3219,-7.3213,-7.3254,-7.3213,-7.3314,-7.321,-7.3348,-7.3258,-7.3295,-7.3302,-7.3309,-7.3316,-7.3201,-7.3382,-7.3685,-7.3716,-7.3324,-7.332,-7.3317,0,-7.2875,-7.2995,-7.3119,-7.3145,-7.3181,-7.3239,-7.3257,-7.3287,-7.333,-7.3382,-7.3409,-7.3472,-7.3507,-7.3555,-7.3532,-7.3459,-7.3674,-7.3568,-7.3672,-7.3673,-7.372,-7.3717,-7.4034,-7.3744,-7.3744,-7.3743,-7.3743,0,-7.3118,-7.3231,-7.3209,-7.3285,-7.341,-7.3377,-7.3501,-7.351,-7.3538,-7.3613,-7.3557,-7.3628,-7.3594,-7.3663,-7.3645,-7.3762,-7.3777,-7.3775,-7.3769,-7.378,-7.3781,-7.3804,-7.3789,-7.3751,-7.3749,-7.3748,-7.3747,0,-7.3359,-7.3348,-7.3479,-7.3503,-7.3512,-7.3603,-7.3622,-7.3693,-7.3688,-7.3785,-7.3805,-7.3799,-7.3877,-7.3859,-7.3943,-7.3931,-7.4079,-7.4054,-7.4067,-7.4062,-7.4166,-7.4157,-7.4508,-7.4553,-7.4235,-7.4238,-7.424,0,-7.3514,-7.36,-7.3634,-7.3682,-7.3705,-7.3782,-7.3826,-7.3797,-7.3845,-7.3893,-7.3958,-7.4031,-7.4088,-7.4216,-7.4217,-7.4282,-7.4259,-7.4378,-7.4268,-7.4277,-7.4261,-7.4256,-7.4264,-7.44,-7.4403,-7.4406,-7.4409,0,-7.3792,-7.3783,-7.3849,-7.3915,-7.397,-7.402,-7.4063,-7.4105,-7.4079,-7.4136,-7.4216,-7.4261,-7.4349,-7.4422,-7.4482,-7.4497,-7.4449,-7.4443,-7.4471,-7.4483,-7.4487,-7.4486,-7.4127,-7.4435,-7.4433,-7.4431,-7.4429,-7.4428,-7.3995,-7.4068,-7.4104,-7.418,-7.4211,-7.4254,-7.4322,-7.4327,-7.4394,-7.4464,-7.4442,-7.4534,-7.4567,-7.4643,-7.4666,-7.4736,-7.469,-7.473,-7.474,-7.4751,-7.4764,-7.4476,-7.4746,-7.4745,-7.4745,-7.4744,-7.4743,0,-7.4269,-7.4289,-7.436,-7.4425,-7.4485,-7.4436,-7.4482,-7.4534,-7.4617,-7.4652,-7.4711,-7.4803,-7.4874,-7.4881,-7.4948,-7.5002,-7.4982,-7.5021,-7.5016,-7.5021,-7.48,-7.477,-7.5036,-7.5036,-7.5036,-7.5036,-7.5036,-7.5036,-7.4419,-7.4541,-7.4537,-7.4673,-7.4691,-7.4782,-7.4813,-7.4851,-7.488,-7.4986,-7.5046,-7.5051,-7.5075,-7.5143,-7.5205,-7.5205,-7.5232,-7.528,-7.5272,-7.5065,-7.5036,-7.5008,-7.498,-7.5286,-7.5287,-7.5487,-7.5489,-7.549]}]]